Location: Martin
(32.0982°N, 93.2193°W)
Time: 03:53:59
(UTC+00:00)

ARIANE 6 FM1 Upper Stage - Pass Details

Date: 21 September 2024
Orbit: 563 x 594 km, 62.0° (Epoch: 11 October)

Event Time Altitude Azimuth Distance (km) Brightness Sun altitude
Rises 02:11:34 0° 239° (WSW) 2,763 6.8 -25.9°
Reaches altitude 10° 02:14:05 10° 253° (WSW) 1,875 6.0 -26.4°
Maximum altitude 02:17:36 25° 309° (NW) 1,185 4.9 -27.1°
Drops below altitude 10° 02:21:10 10° 5° (N) 1,901 5.5 -27.8°
Enters shadow 02:21:50 - 10° (N) 2,124 5.7 -27.9°
